GW5627 Weather Reports


Display with metric or nautical units.
time (UTC)temp
F
wind
direction
speed
MPH
gust
MPH
rain 1hr
in
rain 24hr
in
rain mn
in
humidity
%
barometer
mb
20260504172953 54 202 3.0 7.0 0.00 0.00 0.00 55 1011.9
20260504172449 54 276 3.0 11.0 0.00 0.00 0.00 54 1012.2
20260504171945 54 253 4.0 10.0 0.00 0.00 0.00 54 1012.0
20260504171443 55 280 3.0 12.0 0.00 0.00 0.00 53 1011.9
20260504170939 55 319 4.0 5.0 0.00 0.00 0.00 55 1012.0
20260504170435 55 253 4.0 7.0 0.00 0.00 0.00 53 1012.2
20260504160354 53 112 9.0 12.0 0.00 0.00 0.00 54 1012.3
20260504150819 51 96 3.0 6.0 0.00 0.00 0.00 53 1012.4
20260504150316 52 130 2.0 3.0 0.00 0.00 0.00 52 1012.5
20260504141246 49 108 3.0 5.0 0.00 0.00 0.00 47 1012.8
20260504140742 49 90 2.0 6.0 0.00 0.00 0.00 48 1012.8
20260504140238 49 127 3.0 7.0 0.00 0.00 0.00 47 1012.9
20260504130707 41 132 2.0 3.0 0.00 0.00 0.00 57 1012.7
20260504130203 41 106 0.0 4.0 0.00 0.00 0.00 58 1012.3
20260504120127 40 171 2.0 6.0 0.00 0.00 0.00 52 1012.2
20260504110554 42 122 3.0 4.0 0.00 0.00 0.00 50 1012.2
20260504100516 39 138 3.0 5.0 0.00 0.00 0.00 56 1011.0
20260504081909 39 123 1.0 6.0 0.00 0.00 0.00 56 1011.8
20260504081406 40 140 6.0 6.0 0.00 0.00 0.00 53 1011.8
20260504080902 40 142 5.0 6.0 0.00 0.00 0.00 53 1011.8
20260504080359 41 120 3.0 6.0 0.00 0.00 0.00 53 1012.0
20260504070327 41 129 2.0 5.0 0.00 0.00 0.00 52 1012.3
20260504060247 43 123 2.0 3.0 0.00 0.00 0.00 48 1012.5
20260504050715 44 131 1.0 3.0 0.00 0.00 0.00 44 1012.9
20260504050212 45 135 2.0 5.0 0.00 0.00 0.00 44 1013.2
20260504045709 45 114 0.0 2.0 0.00 0.00 0.00 43 1013.0
20260504045209 46 139 1.0 2.0 0.00 0.00 0.00 42 1013.0
20260504044708 46 126 0.0 3.0 0.00 0.00 0.00 42 1013.3
20260504044204 46 135 4.0 4.0 0.00 0.00 0.00 42 1013.0
20260504043701 46 143 0.0 5.0 0.00 0.00 0.00 42 1013.2
20260504043158 46 191 1.0 3.0 0.00 0.00 0.00 43 1013.0
20260504042655 46 196 0.0 3.0 0.00 0.00 0.00 42 1013.4
20260504042152 48 117 2.0 3.0 0.00 0.00 0.00 38 1013.5
20260504041648 48 165 0.0 2.0 0.00 0.00 0.00 37 1013.2
20260504041144 49 135 0.0 2.0 0.00 0.00 0.00 36 1013.3
20260504040641 49 135 0.0 3.0 0.00 0.00 0.00 36 1013.3
20260504040138 49 166 0.0 2.0 0.00 0.00 0.00 36 1013.2
20260504035635 50 191 1.0 3.0 0.00 0.00 0.00 36 1012.9
20260504035131 50 190 0.0 2.0 0.00 0.00 0.00 36 1012.9
20260504034629 49 203 3.0 3.0 0.00 0.00 0.00 36 1013.0
20260504034126 49 180 1.0 2.0 0.00 0.00 0.00 35 1013.2
20260504033624 50 187 0.0 2.0 0.00 0.00 0.00 35 1013.3
20260504033121 49 195 0.0 1.0 0.00 0.00 0.00 35 1013.0
20260504032618 50 210 2.0 2.0 0.00 0.00 0.00 35 1013.4
20260504032115 49 203 0.0 2.0 0.00 0.00 0.00 35 1013.3
20260504031612 49 261 0.0 2.0 0.00 0.00 0.00 35 1013.2
20260504031108 50 352 0.0 3.0 0.00 0.00 0.00 35 1013.0
20260504030605 49 249 0.0 2.0 0.00 0.00 0.00 35 1013.0
20260504025558 50 292 2.0 3.0 0.00 0.00 0.00 35 1013.0
20260504025055 50 8 0.0 2.0 0.00 0.00 0.00 35 1013.0
20260504024552 50 255 1.0 3.0 0.00 0.00 0.00 35 1012.7
20260504024049 50 209 0.0 2.0 0.00 0.00 0.00 34 1013.0
20260504023546 50 261 0.0 1.0 0.00 0.00 0.00 34 1012.7
20260504023042 50 188 0.0 0.0 0.00 0.00 0.00 34 1012.9
20260504022538 51 261 0.0 0.0 0.00 0.00 0.00 34 1012.9
20260504022034 51 259 0.0 2.0 0.00 0.00 0.00 34 1012.9
20260504021532 51 195 0.0 2.0 0.00 0.00 0.00 34 1012.8
20260504021028 52 270 0.0 2.0 0.00 0.00 0.00 34 1012.7
20260504020525 52 195 0.0 3.0 0.00 0.00 0.00 35 1012.7
20260504020022 53 303 1.0 2.0 0.00 0.00 0.00 35 1012.7
20260504015518 54 240 0.0 2.0 0.00 0.00 0.00 34 1012.7
20260504015014 55 270 3.0 5.0 0.00 0.00 0.00 33 1012.5
20260504014510 55 278 2.0 5.0 0.00 0.00 0.00 32 1012.8
20260504014008 55 243 3.0 5.0 0.00 0.00 0.00 33 1012.7
20260504013506 56 330 4.0 4.0 0.00 0.00 0.00 33 1012.4
20260504013001 56 262 1.0 5.0 0.00 0.00 0.00 33 1012.9
20260504012500 56 270 3.0 7.0 0.00 0.00 0.00 33 1012.7
20260504011958 57 234 5.0 6.0 0.00 0.00 0.00 32 1012.8
20260504011454 57 253 3.0 10.0 0.00 0.00 0.00 32 1012.7
20260504010949 57 286 3.0 6.0 0.00 0.00 0.00 32 1012.8
20260504010446 58 245 3.0 8.0 0.00 0.00 0.00 32 1013.0
20260504005942 58 250 3.0 8.0 0.00 0.00 0.00 32 1012.9
20260504005439 58 265 4.0 8.0 0.00 0.00 0.00 31 1012.7
20260504004936 59 301 5.0 11.0 0.00 0.00 0.00 30 1013.0
20260504004434 59 291 6.0 10.0 0.00 0.00 0.00 30 1012.9
20260504003931 60 248 7.0 12.0 0.00 0.00 0.00 29 1013.0
20260504003427 59 298 6.0 13.0 0.00 0.00 0.00 27 1012.8
20260504002924 60 257 1.0 15.0 0.00 0.00 0.00 27 1013.2
20260504002421 60 298 8.0 17.0 0.00 0.00 0.00 26 1012.8
20260504001918 61 270 5.0 17.0 0.00 0.00 0.00 26 1013.0
20260504001416 61 279 11.0 18.0 0.00 0.00 0.00 26 1012.8
20260504000912 61 273 8.0 11.0 0.00 0.00 0.00 28 1012.9
20260504000409 61 249 6.0 18.0 0.00 0.00 0.00 28 1012.9
20260503235907 62 250 10.0 15.0 0.00 0.00 0.00 28 1012.9
20260503235404 62 287 4.0 19.0 0.00 0.00 0.00 29 1012.9
20260503234902 62 261 5.0 17.0 0.00 0.00 0.00 29 1013.3
20260503234359 61 227 11.0 20.0 0.00 0.00 0.00 30 1013.0
20260503233856 60 18 3.0 15.0 0.00 0.00 0.00 30 1012.9
20260503233353 60 328 9.0 20.0 0.00 0.00 0.00 30 1013.5
20260503232849 60 277 8.0 14.0 0.00 0.00 0.00 29 1012.9
20260503232346 61 274 5.0 17.0 0.00 0.00 0.00 29 1013.2
20260503231845 62 291 7.0 13.0 0.00 0.00 0.00 30 1013.0
20260503231341 62 221 7.0 13.0 0.00 0.00 0.00 29 1013.3
20260503230837 62 263 13.0 18.0 0.00 0.00 0.00 29 1013.3
20260503230334 61 324 11.0 18.0 0.00 0.00 0.00 31 1013.3
20260503225832 61 248 5.0 21.0 0.00 0.00 0.00 29 1013.4
20260503225328 62 313 10.0 17.0 0.00 0.00 0.00 31 1013.0
20260503224824 62 232 8.0 13.0 0.00 0.00 0.00 31 1013.2
20260503224322 62 272 7.0 20.0 0.00 0.00 0.00 30 1013.4
20260503223819 61 299 7.0 18.0 0.00 0.00 0.00 30 1013.4
20260503223317 61 236 7.0 13.0 0.00 0.00 0.00 31 1013.2
20260503222812 62 317 8.0 14.0 0.00 0.00 0.00 32 1013.3
20260503222311 60 232 8.0 19.0 0.00 0.00 0.00 31 1013.5
20260503221809 61 289 8.0 17.0 0.00 0.00 0.00 33 1013.7
20260503221307 61 266 0.0 10.0 0.00 0.00 0.00 36 1013.3
20260503220802 60 303 5.0 17.0 0.00 0.00 0.00 33 1013.5
20260503220300 60 278 5.0 9.0 0.00 0.00 0.00 34 1013.8
20260503215756 60 286 5.0 14.0 0.00 0.00 0.00 34 1014.1
20260503215253 60 328 7.0 14.0 0.00 0.00 0.00 33 1014.1
20260503214751 60 317 6.0 15.0 0.00 0.00 0.00 33 1013.8
20260503214248 60 264 2.0 16.0 0.00 0.00 0.00 34 1013.9
20260503213746 59 246 5.0 10.0 0.00 0.00 0.00 37 1014.2
20260503213243 59 325 1.0 10.0 0.00 0.00 0.00 35 1014.3
20260503212740 59 311 10.0 12.0 0.00 0.00 0.00 36 1014.3
20260503212238 60 253 7.0 12.0 0.00 0.00 0.00 36 1014.4
20260503211735 60 303 8.0 22.0 0.00 0.00 0.00 35 1014.3
20260503211231 61 221 8.0 15.0 0.00 0.00 0.00 35 1014.4
20260503210726 62 252 12.0 21.0 0.00 0.00 0.00 34 1014.6
20260503210224 62 229 10.0 13.0 0.00 0.00 0.00 34 1014.4
20260503205720 60 265 5.0 17.0 0.00 0.00 0.00 35 1014.6
20260503205216 63 321 5.0 21.0 0.00 0.00 0.00 35 1014.8
20260503204712 63 295 4.0 19.0 0.00 0.00 0.00 35 1014.7
20260503204210 61 242 7.0 24.0 0.00 0.00 0.00 33 1014.8
20260503203707 61 311 3.0 15.0 0.00 0.00 0.00 35 1014.9
20260503203205 60 263 3.0 18.0 0.00 0.00 0.00 36 1015.1
20260503202702 63 229 11.0 19.0 0.00 0.00 0.00 34 1014.9
20260503202200 61 338 6.0 16.0 0.00 0.00 0.00 37 1015.1
20260503201657 61 235 7.0 12.0 0.00 0.00 0.00 38 1015.2
20260503201155 59 238 7.0 22.0 0.00 0.00 0.00 36 1015.2
20260503200650 59 251 5.0 14.0 0.00 0.00 0.00 37 1015.6
20260503200147 59 279 10.0 18.0 0.00 0.00 0.00 37 1015.7
20260503195644 59 285 9.0 23.0 0.00 0.00 0.00 35 1015.6
20260503195141 63 276 4.0 12.0 0.00 0.00 0.00 36 1015.3
20260503194638 62 286 3.0 13.0 0.00 0.00 0.00 36 1015.7
20260503194133 60 270 8.0 14.0 0.00 0.00 0.00 36 1015.9
20260503193631 59 267 10.0 19.0 0.00 0.00 0.00 36 1015.7
20260503193126 61 311 8.0 16.0 0.00 0.00 0.00 36 1015.6
20260503192622 62 331 8.0 24.0 0.00 0.00 0.00 35 1015.8
20260503192118 61 322 10.0 17.0 0.00 0.00 0.00 35 1015.8
20260503191615 60 330 12.0 21.0 0.00 0.00 0.00 35 1015.8
20260503191111 60 263 5.0 24.0 0.00 0.00 0.00 36 1015.9
20260503190609 60 250 7.0 21.0 0.00 0.00 0.00 35 1015.8
20260503190106 60 309 3.0 18.0 0.00 0.00 0.00 36 1016.1
20260503185602 61 286 2.0 19.0 0.00 0.00 0.00 38 1016.1
20260503185102 61 269 10.0 21.0 0.00 0.00 0.00 36 1015.9
20260503184558 61 232 8.0 17.0 0.00 0.00 0.00 36 1016.2
20260503184055 60 288 6.0 21.0 0.00 0.00 0.00 36 1016.2
20260503183551 60 228 11.0 11.0 0.00 0.00 0.00 38 1016.2
20260503183048 59 315 15.0 23.0 0.00 0.00 0.00 37 1016.3
20260503182547 59 234 14.0 18.0 0.00 0.00 0.00 39 1016.6
20260503182045 60 257 13.0 23.0 0.00 0.00 0.00 36 1016.8
20260503181541 60 225 11.0 17.0 0.00 0.00 0.00 39 1016.6
20260503181037 60 304 9.0 14.0 0.00 0.00 0.00 39 1016.7
20260503180535 61 251 10.0 12.0 0.00 0.00 0.00 38 1016.4
20260503180032 60 337 15.0 18.0 0.00 0.00 0.00 38 1016.9
20260503175529 59 223 11.0 19.0 0.00 0.00 0.00 39 1017.1
20260503175026 60 320 7.0 14.0 0.00 0.00 0.00 37 1016.9
20260503174524 59 264 16.0 17.0 0.00 0.00 0.00 38 1016.7
20260503174020 58 268 9.0 14.0 0.00 0.00 0.00 38 1016.6
20260503173515 59 252 6.0 17.0 0.00 0.00 0.00 36 1017.3